Simultaneous Nadir Overpasses (SNOs) Predictions

Prediction of SNOs between GOES-15 and METOP-A Satellite Orbit:

Table of predicted SNOs for the next 14.0 days since TLE Epoch: 3/24/2012
Index Date Time (GOES-15) GOES-15 Lat,Lon METOP-A Lat,Lon Distance(km) Time Diff (sec)
1 03/24/2012 18:25:15 -0.06,-135.12 -0.44,-133.51 183.31 80
2 03/26/2012 06:41:34 0.07,-135.04 -0.61,-138.10 348.67 80
3 03/27/2012 06:23:34 0.07,-135.01 0.51,-133.10 217.30 80
4 03/28/2012 18:39:47 -0.08,-134.99 0.49,-137.67 304.05 80
5 03/29/2012 18:21:46 -0.08,-134.96 -0.57,-132.66 261.47 80
6 03/31/2012 06:38:07 0.09,-134.87 -0.42,-137.26 271.85 80
7 04/01/2012 06:20:06 0.09,-134.83 0.63,-132.25 293.40 80
8 04/02/2012 18:36:18 -0.09,-134.81 0.36,-136.81 228.89 80
9 04/03/2012 18:18:19 -0.09,-134.76 -0.75,-131.82 335.99 80
10 04/05/2012 06:34:38 0.09,-134.66 -0.30,-136.40 198.30 80
11 04/06/2012 06:16:39 0.09,-134.62 0.82,-131.41 366.16 80




NCC Satellite Simultaneous Nadir Overpasses (SNOs) Prediction Service
